Weather in Piterka

Russia / Saratov Oblast     50°40′37″N   47°26′39″E
temp.,
°C
wind,
m/s
gust,
m/s
humid.,
%
clouds,
%
prec.,
mm/h
press.,
hPa
HPBL,
m
29 november, mon
mon2901:00+2sse479398 0.0 1018131
04:00+3sse499140 0.0 1018194
07:00+3sse4993100 0.0 1018211
10:00+3sse51191100 0.0 1018286
13:00+5sse61387100 0.0 1018396
16:00+6sse81682100 0.0 1016523
19:00+6sse91782100 0.0 1015510
22:00+5sse9188293 0.0 1013471
30 november, tue
tue3001:00+5sse10197199 0.0 1010458
04:00+4se112075100 0.4 1006463
07:00+6s112266100 0.3 1003590
10:00+5s112183100 6.0 1001619
13:00+7ssw91888100 1.3 1000780
16:00+9ssw71491100 1.8 1000600
19:00+8ssw511934 0.1 1000248
22:00+6s469947 0.1 1000120
1 december, wed
wed101:00+5sse4699100 0.0 997155
04:00+6sse3698100 0.0 995273
07:00+7sse61398100 1.3 992426
10:00+8s91687100 2.4 989853
13:00+9ssw111574100 0.2 9881210
16:00+3w121676100 0.2 9931024
19:00+2w8137311 0.0 999830
22:00−1w612765 0.0 1001532
2 december, thu
thu201:00−1wsw5108072 0.0 1003352
04:00−1wsw510885 0.0 1004307
07:00−2sw49925 0.0 1006247
10:00−1sw510855 0.0 1009372
13:00+1wsw71076100 0.0 1010874
16:00+1w6971100 0.0 1012945
19:00−1wsw49735 0.0 1014222
22:00−1sw511795 0.0 1015276
3 december, fri
fri301:00−1sw5138411 0.0 1016337
04:00−1ssw6138427 0.0 1016310
07:000ssw71586100 0.0 1016363
10:00+1sw7148699 0.0 1017385
13:00+3sw61288100 0.0 1017469
16:00+4ssw61289100 0.0 1018415
19:00+4ssw71484100 0.0 1019384
22:00+4ssw7168254 0.0 1019421